Regional Weather Roundup
Issued by NWS

Home | Current Version | Previous Version | Text Only | Print | Product List | Glossary On
Versions: 1 2 3 4 5 6 7 8 9 10 11 12 13 14 15 16 17 18 19 20 21 22 23 24 25 26 27 28 29 30 31 32 33 34 35 36 37 38 39 40 41 42 43 44 45 46 47 48 49 50
000
ASUS43 KMPX 092201
RWRMN
WEATHER ROUNDUP FOR MINNESOTA
NATIONAL WEATHER SERVICE TWIN CITIES/CHANHASSEN MN
400 PM CST TUE FEB 09 2016


NOTE: "FAIR" INDICATES FEW OR NO CLOUDS BELOW 12,000 FEET WITH NO
SIGNIFICANT WEATHER AND/OR OBSTRUCTIONS TO VISIBILITY. N/A MEANS
CURRENT SKY AND/OR WEATHER CONDITIONS ARE NOT AVAILABLE.

MNZ060>063-068>070-092300-
   Twin Cities Metro

CITY           SKY/WX    TMP DP  RH WIND       PRES   REMARKS
TWIN CITIES    SUNNY     16   0  49 NW16      30.11R WCI   1
ST PAUL        SUNNY     17  -1  45 NW18G26   30.12R WCI   1
CRYSTAL        SUNNY     16   0  49 NW15      30.11R WCI   1
LAKEVILLE      SUNNY     14   0  52 NW20G26   30.09R WCI  -3
EDEN PRAIRIE   SUNNY     17  -1  45 NW20G25   30.10R WCI   1
SOUTH ST PAUL  SUNNY     17  -1  44 NW15G21   30.10R WCI   3
LAKE ELMO      FAIR      18   1  49 NW15      30.09R WCI   3
$$
MNZ001>005-007-008-013>017-022>024-027-028-092300-
   Northwest Minnesota

CITY           SKY/WX    TMP DP  RH WIND       PRES   REMARKS
BEMIDJI        SUNNY      8  -2  65 NW10      30.16R WCI  -7
HALLOCK        SUNNY      5  -2  72 N14       30.29S WCI -12
ROSEAU         SUNNY      7   0  72 W9        30.23R WCI  -7
WARROAD        SUNNY     10  -2  56 NW6       30.21S WCI   1
THIEF RVR FALL SUNNY      9  -2  61 NW12      30.24R WCI  -6
CROOKSTON      SUNNY      9   3  78 N15       30.28S WCI  -8
FOSSTON        SUNNY     10   0  61 NW9       30.21R WCI  -2
DETROIT LAKES  SUNNY     10   3  72 N10       30.20R WCI  -3
MOORHEAD       CLOUDY    12   5  73 N10       30.26S WCI  -1
PARK RAPIDS    SUNNY     13  -3  49 NW15      30.13R WCI  -3
MAHNOMEN       FAIR       9   1  72 NW13      30.21R WCI  -7
$$
MNZ006-009>011-018-025>026-092300-
   North Central Minnesota

CITY           SKY/WX    TMP DP  RH WIND       PRES   REMARKS
BAUDETTE       SUNNY      6  -5  60 NW15      30.18R WCI -12
FLAG ISLAND    SUNNY      7  -2  66 NW15      30.21R WCI -11
INTL FALLS     SUNNY      6  -5  60 N15       30.14S WCI -12
WASKISH        SUNNY      9  -2  61 NW9G16    30.18R WCI  -5
LONGVILLE      SUNNY      9  -2  61 NW10      30.13S WCI  -6
GRAND RAPIDS   SUNNY      9  -4  56 NW14      30.09F WCI  -8
CRANE LAKE     PTSUNNY    3  -6  66 NW9G17    30.13R WCI -11
ORR            SUNNY      7  -6  56 NW8       30.07S WCI  -6
COOK           SUNNY      7  -6  56 NW8G18    30.09S WCI  -6
WALKER         FAIR       9  -2  61 NW10      30.13F WCI  -6
$$
MNZ012-019>021-037-092300-
   Northeast Minnesota

CITY           SKY/WX    TMP DP  RH WIND       PRES   REMARKS
DULUTH         MOSUNNY    9  -5  53 N17G26    30.02R WCI  -9
ELY            MOSUNNY    3  -2  78 NW12G17   30.04R WCI -13
HIBBING        SUNNY      6  -4  63 NW16      30.07R WCI -12
EVELETH        SUNNY      9  -4  56 NW12G25   30.08R WCI  -6
DULUTH HARBOR  SUNNY     16   0  48 NW16G23   30.10R WCI   0
TWO HARBORS    SUNNY     12   0  57 NW8G20    30.02R WCI   1
SILVER BAY     SUNNY     10  -2  56 NW10G22   30.02R WCI  -3
G MARAIS ARPRT MOSUNNY    0  -9  65 NW9G22    29.92R WCI -16
$$
MNZ029>031-032-039>041-046>048-054>057-064-092300-
   West Central Minnesota

CITY           SKY/WX    TMP DP  RH WIND       PRES   REMARKS
FERGUS FALLS   CLOUDY    12   3  67 N15       30.25R WCI  -4
WHEATON        CLOUDY    18  10  73 NW14      30.26S WCI   4
MORRIS         CLOUDY    16   7  67 NW20      30.19S WCI  -1
ALEXANDRIA     SUNNY     14  -1  51 NW12      30.16R WCI   0
ELBOW LAKE     CLOUDY    13   6  73 NW14      30.21R HAZE    WCI  -2
WADENA         SUNNY     12   1  62 NW15      30.15R WCI  -4
GLENWOOD       SUNNY     16   3  57 NW16      30.16R WCI   0
APPLETON       CLOUDY    18   9  68 NW17      30.22S WCI   2
BENSON         CLOUDY    16   7  67 N15       30.20S WCI   1
ORTONVILLE     CLOUDY    18   9  68 N12       30.22S WCI   5
MADISON        CLOUDY    19  10  68 NW16      30.22F WCI   5
WILLMAR        FAIR      18   9  68 NW17      30.18R WCI   2
$$
MNZ033>034-036-042>043-049>051-058-059-092300-
   Central Minnesota

CITY           SKY/WX    TMP DP  RH WIND       PRES   REMARKS
ST CLOUD       SUNNY     15   0  51 NW17      30.13R WCI  -1
SAUK CENTRE    FAIR      15   3  59 NW14      30.15S WCI   0
PAYNESVILLE    SUNNY     15   3  58 NW9G20    30.16S WCI   4
AITKIN         SUNNY     12  -6  44 NW8       30.10S WCI   1
PINE RIVER     SUNNY     10  -2  56 NW12      30.15F WCI  -4
BRAINERD       SUNNY     12  -4  48 N17G23    30.13S WCI  -5
STAPLES        SUNNY     12  -2  52 NW12      30.13S WCI  -2
LONG PRAIRIE   FAIR      14   1  57 NW12G17   30.14S WCI   0
LITTLE FALLS   SUNNY     16  -4  41 NW8       30.14F WCI   5
LITCHFIELD     SUNNY     16   1  53 NW16G23   30.15S WCI   0
BUFFALO        SUNNY     16   1  51 NW13G20   30.14S WCI   3
MAPLE LAKE     SUNNY     17   2  53 NW13G23   30.14S WCI   3
$$
MNZ037-044-045-052-053-092300-
   East Central Minnesota

CITY           SKY/WX    TMP DP  RH WIND       PRES   REMARKS
PRINCETON      SUNNY     16   0  48 NW16G22   30.12R WCI   0
MORA           SUNNY     14   0  52 NW14G26   30.12R WCI  -1
CAMBRIDGE      SUNNY     16   1  53 NW13G21   30.10R WCI   2
RUSH CITY      SUNNY     15  -1  50 NW14G20   30.10R WCI   0
MOOSE LAKE     SUNNY     14  -4  44 N12G17    30.06S WCI   0
HINCKLEY       FAIR      16  -2  45 NW15G23   30.09R WCI   1
CLOQUET        SUNNY     10  -6  48 NW18G26   30.05R WCI  -8
MCGREGOR       SUNNY     12  -4  48 NW14G20   30.11R WCI  -3
$$
MNZ071>073-080-081-089-090-097-098-092300-
   Southwest Minnesota

CITY           SKY/WX    TMP DP  RH WIND       PRES   REMARKS
MONTEVIDEO     CLOUDY    18   9  68 N18       30.22S WCI   2
GRANITE FALLS  CLOUDY    19  11  73 NW20      30.22S WCI   3
CANBY          CLOUDY    23  14  69 NW13      30.22F WCI  11
MARSHALL       CLOUDY    18   9  68 NW15      30.20R WCI   4
REDWOOD FALLS  MOSUNNY   18   7  62 NW17G24   30.18R WCI   3
OLIVIA         SUNNY     21  10  63 NW17G24   30.16S WCI   7
PIPESTONE      CLOUDY    23   5  46 N13G21    30.17S WCI  11
WINDOM         SUNNY     16   9  73 NW25G31   30.15R WCI  -3
WORTHINGTON    CLOUDY    18   7  62 NW21      30.18R WCI   1
JACKSON        SUNNY     18   7  62 NW22G32   30.15R WCI   0
TRACY          CLOUDY    19  11  73 NW18G25   30.19R WCI   3
SLAYTON        CLOUDY    17  11  77 NW18      30.17R WCI   1
$$
MNZ065>067-074>077-082>085-091>093-092300-
   South Central Minnesota

CITY           SKY/WX    TMP DP  RH WIND       PRES   REMARKS
MANKATO        SUNNY     16   1  53 NW21G26   30.12R WCI  -2
NEW ULM        SUNNY     18   3  53 N17G29    30.14R WCI   2
ST JAMES       SUNNY     18  10  73 NW24      30.16R WCI   0
FAIRMONT       MOSUNNY   18   5  57 NW23G30   30.12R WCI   0
GLENCOE        SUNNY     17   5  60 NW15G24   30.14R WCI   2
FARIBAULT        N/A     16   1  53 NW15G22   30.09R WCI   1
OWATONNA       SUNNY     14   1  57 NW21G26   30.08R WCI  -4
WASECA         SUNNY     14   5  67 NW18      30.11R WCI  -3
ALBERT LEA     SUNNY     14   3  62 NW20G26   30.07R WCI  -3
$$
MNZ078>079-086>088-094>096-092300-
   Southeast Minnesota

CITY           SKY/WX    TMP DP  RH WIND       PRES   REMARKS
ROCHESTER      SUNNY     13   1  59 NW24      30.02R WCI  -7
RED WING       SUNNY     16  -2  45 NW12G24   30.08R WCI   3
STANTON        SUNNY     16   1  51 NW15G26   30.08R WCI   2
DODGE CENTER   SUNNY     14   1  57 NW18G24   30.04R WCI  -3
WINONA         SUNNY     18   3  53 NW21      30.05R WCI   1
AUSTIN         SUNNY     12   3  67 NW21      30.05R WCI  -6
PRESTON        SUNNY     13   1  58 NW16      30.01R WCI  -4
$$
ABBREVIATIONS USED IN REMARKS
   TC - TEMPERATURES IN CELSIUS
  WCI - WIND CHILL INDEX
   HX - HEAT INDEX
  VSB - VISIBILITY
$$



USA.gov is the U.S. government's official web portal to all federal, state and local government web resources and services.